Time,TemperatureF,DewpointF,PressureIn,WindDirection,WindDirectionDegrees,WindSpeedMPH,WindSpeedGustMPH,Humidity,HourlyPrecipIn,Conditions,Clouds,dailyrainin,SoftwareType,DateUTC
2013-12-05 00:01:00,61.2,60.6,30.06,SW,221,0.0,0.0,98,0.00,,---,0.00,VWS V14.00,2013-12-05 05:01:00,
2013-12-05 00:06:00,61.2,60.6,30.06,SW,218,0.0,0.0,98,0.00,,---,0.00,VWS V14.00,2013-12-05 05:06:00,
2013-12-05 00:11:00,61.2,60.6,30.06,SW,218,0.0,0.0,98,0.00,,---,0.00,VWS V14.00,2013-12-05 05:11:00,
2013-12-05 00:16:00,61.2,60.6,30.06,SW,218,0.0,0.0,98,0.00,,---,0.00,VWS V14.00,2013-12-05 05:16:00,
2013-12-05 00:21:00,61.1,60.5,30.06,SSW,192,0.0,0.0,98,0.00,,---,0.00,VWS V14.00,2013-12-05 05:21:00,
2013-12-05 00:26:00,61.1,60.5,30.06,South,175,0.0,0.0,98,0.00,,---,0.00,VWS V14.00,2013-12-05 05:26:00,
2013-12-05 00:31:00,61.1,60.5,30.06,South,175,0.0,0.0,98,0.00,,---,0.00,VWS V14.00,2013-12-05 05:31:00,
2013-12-05 00:36:00,61.1,60.5,30.06,South,175,0.0,0.0,98,0.00,,---,0.00,VWS V14.00,2013-12-05 05:36:00,
2013-12-05 00:41:00,61.1,60.5,30.06,South,175,0.0,0.0,98,0.00,,---,0.00,VWS V14.00,2013-12-05 05:41:00,
2013-12-05 00:46:00,61.0,60.4,30.06,South,175,0.0,0.0,98,0.00,,---,0.00,VWS V14.00,2013-12-05 05:46:00,
2013-12-05 00:51:00,61.0,60.4,30.06,South,175,0.0,0.0,98,0.00,,---,0.00,VWS V14.00,2013-12-05 05:51:00,
2013-12-05 00:56:00,60.9,60.3,30.06,South,175,0.0,0.0,98,0.00,,---,0.00,VWS V14.00,2013-12-05 05:56:00,
2013-12-05 01:01:00,60.9,60.3,30.06,South,175,0.0,0.0,98,0.02,,---,0.02,VWS V14.00,2013-12-05 06:01:00,
2013-12-05 01:06:00,60.9,60.3,30.06,South,175,0.0,0.0,98,0.03,,---,0.03,VWS V14.00,2013-12-05 06:06:00,
2013-12-05 01:11:00,60.9,60.3,30.06,South,175,0.0,0.0,98,0.04,,---,0.04,VWS V14.00,2013-12-05 06:11:00,
2013-12-05 01:16:00,60.9,60.3,30.06,South,175,0.0,0.0,98,0.04,,---,0.04,VWS V14.00,2013-12-05 06:16:00,
2013-12-05 01:21:00,60.8,60.2,30.06,South,175,0.0,0.0,98,0.05,,---,0.05,VWS V14.00,2013-12-05 06:21:00,
2013-12-05 01:26:00,60.8,60.2,30.06,South,175,0.0,0.0,98,0.05,,---,0.05,VWS V14.00,2013-12-05 06:26:00,
2013-12-05 01:31:00,60.8,60.2,30.05,South,175,0.0,0.0,98,0.05,,---,0.05,VWS V14.00,2013-12-05 06:31:00,
2013-12-05 01:36:00,60.7,60.1,30.05,South,175,0.0,0.0,98,0.05,,---,0.05,VWS V14.00,2013-12-05 06:36:00,
2013-12-05 01:41:00,60.7,60.1,30.05,South,175,0.0,0.0,98,0.06,,---,0.06,VWS V14.00,2013-12-05 06:41:00,
2013-12-05 01:46:00,60.7,60.1,30.05,South,175,0.0,0.0,98,0.07,,---,0.07,VWS V14.00,2013-12-05 06:46:00,
2013-12-05 01:51:00,60.6,60.0,30.05,South,175,0.0,0.0,98,0.07,,---,0.07,VWS V14.00,2013-12-05 06:51:00,
2013-12-05 01:56:00,60.7,60.1,30.05,South,182,0.0,0.0,98,0.07,,---,0.07,VWS V14.00,2013-12-05 06:56:00,
2013-12-05 02:01:00,60.7,60.1,30.04,SSE,158,1.0,6.0,98,0.06,,---,0.08,VWS V14.00,2013-12-05 07:01:00,
2013-12-05 02:06:00,60.7,60.1,30.04,SSE,150,0.0,2.0,98,0.05,,---,0.08,VWS V14.00,2013-12-05 07:06:00,
2013-12-05 02:11:00,60.7,60.1,30.04,SSE,153,0.0,0.0,98,0.05,,---,0.08,VWS V14.00,2013-12-05 07:11:00,
2013-12-05 02:16:00,60.7,60.1,30.04,South,187,2.0,2.0,98,0.04,,---,0.08,VWS V14.00,2013-12-05 07:16:00,
2013-12-05 02:21:00,60.7,60.1,30.04,South,190,0.0,0.0,98,0.03,,---,0.08,VWS V14.00,2013-12-05 07:21:00,
2013-12-05 02:26:00,60.7,60.1,30.03,SSW,199,3.0,7.0,98,0.03,,---,0.08,VWS V14.00,2013-12-05 07:26:00,
2013-12-05 02:31:00,60.7,60.1,30.03,SSW,196,6.0,7.0,98,0.03,,---,0.08,VWS V14.00,2013-12-05 07:31:00,
2013-12-05 02:36:00,60.7,60.1,30.04,SW,216,0.0,0.0,98,0.03,,---,0.08,VWS V14.00,2013-12-05 07:36:00,
2013-12-05 02:41:00,60.7,60.1,30.04,WSW,238,5.0,6.0,98,0.02,,---,0.08,VWS V14.00,2013-12-05 07:41:00,
2013-12-05 02:46:00,60.8,60.2,30.04,SSE,159,4.0,7.0,98,0.01,,---,0.08,VWS V14.00,2013-12-05 07:46:00,
2013-12-05 02:51:00,60.8,60.2,30.04,SW,217,0.0,7.0,98,0.01,,---,0.08,VWS V14.00,2013-12-05 07:51:00,
2013-12-05 02:56:00,60.8,60.2,30.04,SW,222,0.0,5.0,98,0.01,,---,0.08,VWS V14.00,2013-12-05 07:56:00,
2013-12-05 03:01:00,60.9,60.3,30.04,SW,215,3.0,6.0,98,0.00,,---,0.08,VWS V14.00,2013-12-05 08:01:00,
2013-12-05 03:06:00,60.9,60.3,30.04,SW,236,2.0,4.0,98,0.00,,---,0.08,VWS V14.00,2013-12-05 08:06:00,
2013-12-05 03:11:00,60.9,60.3,30.04,SW,227,4.0,7.0,98,0.00,,---,0.08,VWS V14.00,2013-12-05 08:11:00,
2013-12-05 03:16:00,60.9,60.3,30.04,South,186,1.0,5.0,98,0.00,,---,0.08,VWS V14.00,2013-12-05 08:16:00,
2013-12-05 03:21:00,60.9,60.3,30.05,WSW,240,4.0,6.0,98,0.00,,---,0.08,VWS V14.00,2013-12-05 08:21:00,
2013-12-05 03:26:00,60.9,60.3,30.05,SW,221,5.0,6.0,98,0.00,,---,0.08,VWS V14.00,2013-12-05 08:26:00,
2013-12-05 03:31:00,61.0,60.7,30.05,SW,234,3.0,5.0,99,0.00,,---,0.08,VWS V14.00,2013-12-05 08:31:00,
2013-12-05 03:36:00,61.1,60.8,30.05,SSW,203,9.0,9.0,99,0.00,,---,0.08,VWS V14.00,2013-12-05 08:36:00,
2013-12-05 03:41:00,61.1,60.8,30.04,SSW,211,3.0,8.0,99,0.00,,---,0.08,VWS V14.00,2013-12-05 08:41:00,
2013-12-05 03:46:00,61.1,60.8,30.04,SSW,196,0.0,3.0,99,0.00,,---,0.08,VWS V14.00,2013-12-05 08:46:00,
2013-12-05 03:51:00,61.0,60.7,30.04,SSW,199,2.0,4.0,99,0.00,,---,0.08,VWS V14.00,2013-12-05 08:51:00,
2013-12-05 03:56:00,61.1,60.8,30.04,SSW,213,6.0,7.0,99,0.00,,---,0.08,VWS V14.00,2013-12-05 08:56:00,
2013-12-05 04:01:00,61.1,60.8,30.04,SW,225,6.0,6.0,99,0.00,,---,0.08,VWS V14.00,2013-12-05 09:01:00,
2013-12-05 04:06:00,61.2,60.9,30.03,SSW,195,3.0,9.0,99,0.00,,---,0.08,VWS V14.00,2013-12-05 09:06:00,
2013-12-05 04:11:00,61.2,60.9,30.03,SW,234,4.0,7.0,99,0.00,,---,0.08,VWS V14.00,2013-12-05 09:11:00,
2013-12-05 04:16:00,61.3,61.0,30.03,SW,229,5.0,6.0,99,0.00,,---,0.08,VWS V14.00,2013-12-05 09:16:00,
2013-12-05 04:21:00,61.4,61.1,30.03,SW,221,0.0,8.0,99,0.00,,---,0.08,VWS V14.00,2013-12-05 09:21:00,
2013-12-05 04:26:00,61.5,61.2,30.03,SSW,213,3.0,6.0,99,0.00,,---,0.08,VWS V14.00,2013-12-05 09:26:00,
2013-12-05 04:31:00,61.6,61.3,30.03,WSW,238,6.0,8.0,99,0.00,,---,0.08,VWS V14.00,2013-12-05 09:31:00,
2013-12-05 04:36:00,61.7,61.4,30.03,West,267,7.0,9.0,99,0.00,,---,0.08,VWS V14.00,2013-12-05 09:36:00,
2013-12-05 04:41:00,61.8,61.5,30.03,SSW,213,4.0,10.0,99,0.00,,---,0.08,VWS V14.00,2013-12-05 09:41:00,
2013-12-05 04:46:00,61.9,61.6,30.03,SW,227,4.0,4.0,99,0.00,,---,0.08,VWS V14.00,2013-12-05 09:46:00,
2013-12-05 04:51:00,62.0,61.7,30.04,SSW,207,2.0,2.0,99,0.00,,---,0.08,VWS V14.00,2013-12-05 09:51:00,
2013-12-05 04:56:00,62.0,61.7,30.04,SW,229,0.0,4.0,99,0.00,,---,0.08,VWS V14.00,2013-12-05 09:56:00,
2013-12-05 05:01:00,62.1,61.8,30.04,WSW,237,0.0,7.0,99,0.00,,---,0.08,VWS V14.00,2013-12-05 10:01:00,
2013-12-05 05:06:00,62.2,61.9,30.04,SW,231,0.0,4.0,99,0.00,,---,0.08,VWS V14.00,2013-12-05 10:06:00,
2013-12-05 05:11:00,62.3,62.0,30.04,SW,219,0.0,9.0,99,0.00,,---,0.08,VWS V14.00,2013-12-05 10:11:00,
2013-12-05 05:16:00,62.3,62.0,30.04,SW,226,1.0,4.0,99,0.00,,---,0.08,VWS V14.00,2013-12-05 10:16:00,
2013-12-05 05:21:00,62.3,62.0,30.04,SSW,211,4.0,7.0,99,0.00,,---,0.08,VWS V14.00,2013-12-05 10:21:00,
2013-12-05 05:26:00,62.4,62.1,30.05,WSW,247,5.0,7.0,99,0.00,,---,0.08,VWS V14.00,2013-12-05 10:26:00,
2013-12-05 05:31:00,62.4,62.1,30.05,SW,227,4.0,8.0,99,0.00,,---,0.08,VWS V14.00,2013-12-05 10:31:00,
2013-12-05 05:36:00,62.5,62.2,30.05,WSW,257,5.0,6.0,99,0.00,,---,0.08,VWS V14.00,2013-12-05 10:36:00,
2013-12-05 05:41:00,62.5,62.2,30.05,SW,229,6.0,6.0,99,0.00,,---,0.08,VWS V14.00,2013-12-05 10:41:00,
2013-12-05 05:46:00,62.5,62.2,30.05,SSW,209,5.0,7.0,99,0.00,,---,0.08,VWS V14.00,2013-12-05 10:46:00,
2013-12-05 05:51:00,62.5,62.2,30.05,SSW,213,0.0,0.0,99,0.00,,---,0.08,VWS V14.00,2013-12-05 10:51:00,
2013-12-05 05:56:00,62.5,62.2,30.05,SSW,195,2.0,7.0,99,0.00,,---,0.08,VWS V14.00,2013-12-05 10:56:00,
2013-12-05 06:01:00,62.6,62.3,30.05,SSW,210,0.0,5.0,99,0.00,,---,0.08,VWS V14.00,2013-12-05 11:01:00,
2013-12-05 06:06:00,62.5,62.2,30.05,SW,226,3.0,4.0,99,0.00,,---,0.08,VWS V14.00,2013-12-05 11:06:00,
2013-12-05 06:11:00,62.4,62.1,30.05,SW,217,0.0,5.0,99,0.00,,---,0.08,VWS V14.00,2013-12-05 11:11:00,
2013-12-05 06:16:00,62.4,62.1,30.05,SW,217,0.0,0.0,99,0.00,,---,0.08,VWS V14.00,2013-12-05 11:16:00,
2013-12-05 06:21:00,62.4,62.1,30.06,SW,217,5.0,5.0,99,0.00,,---,0.08,VWS V14.00,2013-12-05 11:21:00,
2013-12-05 06:26:00,62.3,62.0,30.05,SW,219,0.0,2.0,99,0.00,,---,0.08,VWS V14.00,2013-12-05 11:26:00,
2013-12-05 06:31:00,62.3,62.0,30.05,SW,218,4.0,4.0,99,0.00,,---,0.08,VWS V14.00,2013-12-05 11:31:00,
2013-12-05 06:36:00,62.3,62.0,30.05,SW,227,3.0,3.0,99,0.00,,---,0.08,VWS V14.00,2013-12-05 11:36:00,
2013-12-05 06:41:00,62.3,62.0,30.05,SSW,194,3.0,6.0,99,0.01,,---,0.09,VWS V14.00,2013-12-05 11:41:00,
2013-12-05 06:46:00,62.3,62.0,30.06,SSW,203,3.0,7.0,99,0.01,,---,0.09,VWS V14.00,2013-12-05 11:46:00,
2013-12-05 06:51:00,62.3,62.0,30.06,SW,223,0.0,1.0,99,0.01,,---,0.09,VWS V14.00,2013-12-05 11:51:00,
2013-12-05 06:56:00,62.3,62.0,30.06,SSW,208,8.0,8.0,99,0.01,,---,0.09,VWS V14.00,2013-12-05 11:56:00,
2013-12-05 07:01:00,62.3,62.0,30.06,SSW,209,2.0,5.0,99,0.01,,---,0.09,VWS V14.00,2013-12-05 12:01:00,
2013-12-05 07:06:00,62.3,62.0,30.07,West,261,0.0,5.0,99,0.01,,---,0.09,VWS V14.00,2013-12-05 12:06:00,
2013-12-05 07:11:00,62.3,62.0,30.07,West,261,3.0,3.0,99,0.01,,---,0.09,VWS V14.00,2013-12-05 12:11:00,
2013-12-05 07:16:00,62.3,62.0,30.07,SW,226,6.0,6.0,99,0.01,,---,0.09,VWS V14.00,2013-12-05 12:16:00,
2013-12-05 07:21:00,62.3,62.0,30.07,SW,225,0.0,0.0,99,0.01,,---,0.09,VWS V14.00,2013-12-05 12:21:00,
2013-12-05 07:26:00,62.3,62.0,30.06,SW,221,0.0,2.0,99,0.01,,---,0.09,VWS V14.00,2013-12-05 12:26:00,
2013-12-05 07:31:00,62.3,62.0,30.07,SW,221,0.0,0.0,99,0.01,,---,0.09,VWS V14.00,2013-12-05 12:31:00,
2013-12-05 07:36:00,62.3,62.0,30.07,SW,221,0.0,2.0,99,0.01,,---,0.09,VWS V14.00,2013-12-05 12:36:00,
2013-12-05 07:41:00,62.3,62.0,30.07,SW,221,0.0,0.0,99,0.00,,---,0.09,VWS V14.00,2013-12-05 12:41:00,
2013-12-05 07:46:00,62.3,62.0,30.07,SW,221,0.0,0.0,99,0.00,,---,0.09,VWS V14.00,2013-12-05 12:46:00,
2013-12-05 07:51:00,62.3,62.0,30.07,SW,221,0.0,0.0,99,0.00,,---,0.09,VWS V14.00,2013-12-05 12:51:00,
2013-12-05 07:56:00,62.4,62.1,30.08,SW,221,0.0,0.0,99,0.00,,---,0.09,VWS V14.00,2013-12-05 12:56:00,
2013-12-05 08:01:00,62.4,62.1,30.08,WSW,238,0.0,0.0,99,0.00,,---,0.09,VWS V14.00,2013-12-05 13:01:00,
2013-12-05 08:06:00,62.4,62.1,30.08,WSW,238,0.0,2.0,99,0.00,,---,0.09,VWS V14.00,2013-12-05 13:06:00,
2013-12-05 08:11:00,62.4,62.1,30.08,WSW,238,3.0,4.0,99,0.00,,---,0.09,VWS V14.00,2013-12-05 13:11:00,
2013-12-05 08:16:00,62.5,62.2,30.08,WSW,254,0.0,4.0,99,0.01,,---,0.10,VWS V14.00,2013-12-05 13:16:00,
2013-12-05 08:21:00,62.5,62.2,30.08,WSW,254,0.0,1.0,99,0.01,,---,0.10,VWS V14.00,2013-12-05 13:21:00,
2013-12-05 08:26:00,62.6,62.3,30.08,WSW,242,0.0,0.0,99,0.01,,---,0.10,VWS V14.00,2013-12-05 13:26:00,
2013-12-05 08:31:00,62.6,62.3,30.08,WSW,244,7.0,7.0,99,0.01,,---,0.10,VWS V14.00,2013-12-05 13:31:00,
2013-12-05 08:36:00,62.7,62.4,30.08,WSW,253,0.0,0.0,99,0.01,,---,0.10,VWS V14.00,2013-12-05 13:36:00,
2013-12-05 08:41:00,62.7,62.4,30.09,WSW,248,3.0,3.0,99,0.01,,---,0.10,VWS V14.00,2013-12-05 13:41:00,
2013-12-05 08:46:00,62.7,62.4,30.09,WSW,250,5.0,7.0,99,0.01,,---,0.10,VWS V14.00,2013-12-05 13:46:00,
2013-12-05 08:51:00,62.7,62.4,30.09,WSW,237,0.0,1.0,99,0.01,,---,0.10,VWS V14.00,2013-12-05 13:51:00,
2013-12-05 08:56:00,62.7,62.4,30.09,WSW,238,0.0,0.0,99,0.01,,---,0.10,VWS V14.00,2013-12-05 13:56:00,
2013-12-05 09:01:00,62.8,62.5,30.09,SW,229,1.0,3.0,99,0.01,,---,0.10,VWS V14.00,2013-12-05 14:01:00,
2013-12-05 09:06:00,62.8,62.5,30.09,WSW,248,1.0,1.0,99,0.01,,---,0.10,VWS V14.00,2013-12-05 14:06:00,
2013-12-05 09:11:00,62.8,62.5,30.08,SW,229,4.0,4.0,99,0.01,,---,0.10,VWS V14.00,2013-12-05 14:11:00,
2013-12-05 09:16:00,62.9,62.6,30.09,WSW,244,4.0,6.0,99,0.00,,---,0.10,VWS V14.00,2013-12-05 14:16:00,
2013-12-05 09:21:00,63.0,62.7,30.09,WSW,238,1.0,1.0,99,0.00,,---,0.10,VWS V14.00,2013-12-05 14:21:00,
2013-12-05 09:26:00,63.0,62.7,30.09,SW,236,6.0,6.0,99,0.00,,---,0.10,VWS V14.00,2013-12-05 14:26:00,
2013-12-05 09:31:00,63.0,62.7,30.08,SSW,195,0.0,4.0,99,0.00,,---,0.10,VWS V14.00,2013-12-05 14:31:00,
2013-12-05 09:36:00,63.1,62.8,30.08,SSW,206,0.0,4.0,99,0.00,,---,0.10,VWS V14.00,2013-12-05 14:36:00,
2013-12-05 09:41:00,63.2,62.9,30.09,SW,217,4.0,7.0,99,0.00,,---,0.10,VWS V14.00,2013-12-05 14:41:00,
2013-12-05 09:46:00,63.4,63.1,30.09,SW,227,0.0,3.0,99,0.00,,---,0.10,VWS V14.00,2013-12-05 14:46:00,
2013-12-05 09:51:00,63.4,63.1,30.09,SSW,207,3.0,7.0,99,0.00,,---,0.10,VWS V14.00,2013-12-05 14:51:00,
2013-12-05 09:56:00,63.4,63.1,30.09,WSW,238,5.0,8.0,99,0.00,,---,0.10,VWS V14.00,2013-12-05 14:56:00,
2013-12-05 10:01:00,63.2,62.9,30.09,SW,225,3.0,7.0,99,0.00,,---,0.10,VWS V14.00,2013-12-05 15:01:00,
2013-12-05 10:06:00,63.2,62.9,30.09,WSW,255,9.0,9.0,99,0.00,,---,0.10,VWS V14.00,2013-12-05 15:06:00,
2013-12-05 10:11:00,63.2,62.6,30.10,SW,229,4.0,7.0,98,0.00,,---,0.10,VWS V14.00,2013-12-05 15:11:00,
2013-12-05 10:16:00,63.2,62.6,30.09,South,189,4.0,5.0,98,0.00,,---,0.10,VWS V14.00,2013-12-05 15:16:00,
2013-12-05 10:21:00,63.2,62.6,30.09,SW,224,0.0,3.0,98,0.00,,---,0.10,VWS V14.00,2013-12-05 15:21:00,
2013-12-05 10:26:00,63.2,62.9,30.09,WSW,241,0.0,3.0,99,0.00,,---,0.10,VWS V14.00,2013-12-05 15:26:00,
2013-12-05 10:31:00,63.3,63.0,30.09,SSW,212,0.0,4.0,99,0.00,,---,0.10,VWS V14.00,2013-12-05 15:31:00,
2013-12-05 10:36:00,63.3,62.7,30.09,SW,232,0.0,2.0,98,0.00,,---,0.10,VWS V14.00,2013-12-05 15:36:00,
2013-12-05 10:41:00,63.3,62.7,30.09,SW,221,3.0,6.0,98,0.00,,---,0.10,VWS V14.00,2013-12-05 15:41:00,
2013-12-05 10:46:00,63.4,63.1,30.09,WSW,243,5.0,8.0,99,0.00,,---,0.10,VWS V14.00,2013-12-05 15:46:00,
2013-12-05 10:51:00,63.5,63.2,30.09,SW,230,5.0,6.0,99,0.00,,---,0.10,VWS V14.00,2013-12-05 15:51:00,
2013-12-05 10:56:00,63.5,63.2,30.09,WSW,238,0.0,4.0,99,0.00,,---,0.10,VWS V14.00,2013-12-05 15:56:00,
2013-12-05 11:01:00,63.6,63.3,30.09,WSW,244,0.0,2.0,99,0.00,,---,0.10,VWS V14.00,2013-12-05 16:01:00,
2013-12-05 11:06:00,63.7,63.4,30.09,WSW,252,6.0,10.0,99,0.00,,---,0.10,VWS V14.00,2013-12-05 16:06:00,
2013-12-05 11:11:00,63.7,63.4,30.09,SW,228,7.0,10.0,99,0.00,,---,0.10,VWS V14.00,2013-12-05 16:11:00,
2013-12-05 11:16:00,63.8,63.5,30.09,SW,219,0.0,1.0,99,0.00,,---,0.10,VWS V14.00,2013-12-05 16:16:00,
2013-12-05 11:21:00,63.8,63.5,30.09,WSW,240,6.0,11.0,99,0.00,,---,0.10,VWS V14.00,2013-12-05 16:21:00,
2013-12-05 11:26:00,63.9,63.6,30.08,SW,218,1.0,6.0,99,0.00,,---,0.10,VWS V14.00,2013-12-05 16:26:00,
2013-12-05 11:31:00,64.0,63.7,30.08,WSW,239,2.0,8.0,99,0.00,,---,0.10,VWS V14.00,2013-12-05 16:31:00,
2013-12-05 11:36:00,64.1,63.8,30.08,SW,225,6.0,8.0,99,0.01,,---,0.11,VWS V14.00,2013-12-05 16:36:00,
2013-12-05 11:41:00,64.2,63.9,30.08,SW,215,5.0,6.0,99,0.01,,---,0.11,VWS V14.00,2013-12-05 16:41:00,
2013-12-05 11:46:00,64.2,63.9,30.08,West,263,3.0,5.0,99,0.01,,---,0.11,VWS V14.00,2013-12-05 16:46:00,
2013-12-05 11:51:00,64.3,64.0,30.08,West,275,0.0,2.0,99,0.02,,---,0.12,VWS V14.00,2013-12-05 16:51:00,
2013-12-05 11:56:00,64.5,64.2,30.07,SSW,211,5.0,9.0,99,0.02,,---,0.12,VWS V14.00,2013-12-05 16:56:00,
2013-12-05 12:01:00,64.6,64.3,30.07,WSW,255,5.0,5.0,99,0.02,,---,0.12,VWS V14.00,2013-12-05 17:01:00,
2013-12-05 12:06:00,64.6,64.3,30.07,SW,225,4.0,5.0,99,0.02,,---,0.12,VWS V14.00,2013-12-05 17:06:00,
2013-12-05 12:11:00,64.6,64.0,30.07,SW,215,0.0,2.0,98,0.02,,---,0.12,VWS V14.00,2013-12-05 17:11:00,
2013-12-05 12:16:00,64.7,64.1,30.07,SW,232,2.0,6.0,98,0.02,,---,0.12,VWS V14.00,2013-12-05 17:16:00,
2013-12-05 12:21:00,64.7,64.4,30.06,SW,228,1.0,3.0,99,0.02,,---,0.12,VWS V14.00,2013-12-05 17:21:00,
2013-12-05 12:26:00,64.7,64.1,30.06,WSW,240,7.0,8.0,98,0.03,,---,0.13,VWS V14.00,2013-12-05 17:26:00,
2013-12-05 12:31:00,64.8,64.2,30.06,SW,230,5.0,5.0,98,0.04,,---,0.14,VWS V14.00,2013-12-05 17:31:00,
2013-12-05 12:36:00,64.8,64.2,30.05,SW,217,6.0,7.0,98,0.03,,---,0.14,VWS V14.00,2013-12-05 17:36:00,
2013-12-05 12:41:00,64.9,64.3,30.05,WSW,249,7.0,8.0,98,0.03,,---,0.14,VWS V14.00,2013-12-05 17:41:00,
2013-12-05 12:46:00,64.9,64.3,30.05,WSW,244,0.0,3.0,98,0.03,,---,0.14,VWS V14.00,2013-12-05 17:46:00,
2013-12-05 12:51:00,65.0,64.4,30.05,SW,223,7.0,7.0,98,0.03,,---,0.14,VWS V14.00,2013-12-05 17:51:00,
2013-12-05 12:56:00,65.0,64.4,30.05,WSW,251,6.0,9.0,98,0.02,,---,0.14,VWS V14.00,2013-12-05 17:56:00,
2013-12-05 13:01:00,65.0,64.4,30.04,South,170,7.0,7.0,98,0.02,,---,0.14,VWS V14.00,2013-12-05 18:01:00,
2013-12-05 13:06:00,65.1,64.5,30.04,SW,217,2.0,5.0,98,0.02,,---,0.14,VWS V14.00,2013-12-05 18:06:00,
2013-12-05 13:11:00,65.2,64.6,30.04,SW,215,6.0,6.0,98,0.02,,---,0.14,VWS V14.00,2013-12-05 18:11:00,
2013-12-05 13:16:00,65.3,64.7,30.04,WSW,242,2.0,4.0,98,0.02,,---,0.14,VWS V14.00,2013-12-05 18:16:00,
2013-12-05 13:21:00,65.2,64.6,30.04,WSW,250,1.0,4.0,98,0.02,,---,0.14,VWS V14.00,2013-12-05 18:21:00,
2013-12-05 13:26:00,65.1,64.5,30.04,WSW,252,3.0,6.0,98,0.01,,---,0.14,VWS V14.00,2013-12-05 18:26:00,
2013-12-05 13:31:00,65.1,64.5,30.03,WSW,240,2.0,6.0,98,0.00,,---,0.14,VWS V14.00,2013-12-05 18:31:00,
2013-12-05 13:36:00,65.1,64.5,30.03,SW,230,1.0,3.0,98,0.00,,---,0.14,VWS V14.00,2013-12-05 18:36:00,
2013-12-05 13:41:00,65.2,64.6,30.03,SW,234,4.0,5.0,98,0.00,,---,0.14,VWS V14.00,2013-12-05 18:41:00,
2013-12-05 13:46:00,65.2,64.6,30.02,WSW,237,9.0,9.0,98,0.00,,---,0.14,VWS V14.00,2013-12-05 18:46:00,
2013-12-05 13:51:00,65.3,64.7,30.02,SW,232,0.0,3.0,98,0.00,,---,0.14,VWS V14.00,2013-12-05 18:51:00,
2013-12-05 13:56:00,65.4,64.8,30.02,South,186,2.0,9.0,98,0.00,,---,0.14,VWS V14.00,2013-12-05 18:56:00,
2013-12-05 14:01:00,65.5,64.9,30.02,SW,229,5.0,6.0,98,0.00,,---,0.14,VWS V14.00,2013-12-05 19:01:00,
2013-12-05 14:06:00,65.5,64.9,30.01,SW,230,3.0,7.0,98,0.00,,---,0.14,VWS V14.00,2013-12-05 19:06:00,
2013-12-05 14:11:00,65.6,65.0,30.02,SW,224,6.0,7.0,98,0.00,,---,0.14,VWS V14.00,2013-12-05 19:11:00,
2013-12-05 14:16:00,65.7,64.8,30.01,SW,231,2.0,4.0,97,0.00,,---,0.14,VWS V14.00,2013-12-05 19:16:00,
2013-12-05 14:21:00,65.8,64.9,30.01,SW,229,1.0,3.0,97,0.00,,---,0.14,VWS V14.00,2013-12-05 19:21:00,
2013-12-05 14:26:00,65.9,65.3,30.01,SW,218,4.0,4.0,98,0.00,,---,0.14,VWS V14.00,2013-12-05 19:26:00,
2013-12-05 14:31:00,66.0,65.1,30.01,SW,217,4.0,7.0,97,0.00,,---,0.14,VWS V14.00,2013-12-05 19:31:00,
2013-12-05 14:36:00,66.0,65.1,30.01,WSW,248,6.0,7.0,97,0.00,,---,0.14,VWS V14.00,2013-12-05 19:36:00,
2013-12-05 14:41:00,66.0,65.1,30.01,WSW,244,3.0,8.0,97,0.00,,---,0.14,VWS V14.00,2013-12-05 19:41:00,
2013-12-05 14:46:00,66.0,65.1,30.01,SW,225,4.0,5.0,97,0.00,,---,0.14,VWS V14.00,2013-12-05 19:46:00,
2013-12-05 14:51:00,66.0,65.1,30.01,WSW,243,4.0,7.0,97,0.00,,---,0.14,VWS V14.00,2013-12-05 19:51:00,
2013-12-05 14:56:00,66.0,65.1,30.01,SW,234,3.0,4.0,97,0.00,,---,0.14,VWS V14.00,2013-12-05 19:56:00,
2013-12-05 15:01:00,66.0,64.8,30.01,WSW,249,4.0,4.0,96,0.00,,---,0.14,VWS V14.00,2013-12-05 20:01:00,
2013-12-05 15:06:00,66.0,64.8,30.01,WSW,249,4.0,6.0,96,0.00,,---,0.14,VWS V14.00,2013-12-05 20:06:00,
2013-12-05 15:11:00,66.0,64.8,30.01,West,266,4.0,6.0,96,0.00,,---,0.14,VWS V14.00,2013-12-05 20:11:00,
2013-12-05 15:16:00,66.0,64.8,30.01,WSW,252,4.0,6.0,96,0.00,,---,0.14,VWS V14.00,2013-12-05 20:16:00,
2013-12-05 15:21:00,66.1,64.9,30.01,WSW,242,4.0,7.0,96,0.00,,---,0.14,VWS V14.00,2013-12-05 20:21:00,
2013-12-05 15:26:00,66.2,65.3,30.01,SSW,204,4.0,5.0,97,0.00,,---,0.14,VWS V14.00,2013-12-05 20:26:00,
2013-12-05 15:31:00,66.3,65.4,30.01,SW,233,0.0,2.0,97,0.00,,---,0.14,VWS V14.00,2013-12-05 20:31:00,
2013-12-05 15:36:00,66.4,65.5,30.01,SW,233,0.0,0.0,97,0.00,,---,0.14,VWS V14.00,2013-12-05 20:36:00,
2013-12-05 15:41:00,66.5,65.6,30.01,SW,221,2.0,2.0,97,0.00,,---,0.14,VWS V14.00,2013-12-05 20:41:00,
2013-12-05 15:46:00,66.5,65.6,30.00,SSE,156,5.0,8.0,97,0.00,,---,0.14,VWS V14.00,2013-12-05 20:46:00,
2013-12-05 15:51:00,66.5,65.3,30.00,SSW,213,2.0,3.0,96,0.00,,---,0.14,VWS V14.00,2013-12-05 20:51:00,
2013-12-05 15:56:00,66.5,65.3,30.01,SW,230,6.0,8.0,96,0.00,,---,0.14,VWS V14.00,2013-12-05 20:56:00,
2013-12-05 16:01:00,66.6,65.4,30.01,SW,223,3.0,3.0,96,0.00,,---,0.14,VWS V14.00,2013-12-05 21:01:00,
2013-12-05 16:06:00,66.5,65.3,30.01,West,267,0.0,5.0,96,0.00,,---,0.14,VWS V14.00,2013-12-05 21:06:00,
2013-12-05 16:11:00,66.6,65.4,30.01,SW,228,1.0,2.0,96,0.00,,---,0.14,VWS V14.00,2013-12-05 21:11:00,
2013-12-05 16:16:00,66.6,65.4,30.02,WSW,257,3.0,3.0,96,0.00,,---,0.14,VWS V14.00,2013-12-05 21:16:00,
2013-12-05 16:21:00,66.6,65.4,30.01,SSW,213,2.0,2.0,96,0.00,,---,0.14,VWS V14.00,2013-12-05 21:21:00,
2013-12-05 16:26:00,66.5,65.3,30.01,WSW,244,0.0,2.0,96,0.00,,---,0.14,VWS V14.00,2013-12-05 21:26:00,
2013-12-05 16:31:00,66.6,65.4,30.02,SSW,200,0.0,3.0,96,0.00,,---,0.14,VWS V14.00,2013-12-05 21:31:00,
2013-12-05 16:36:00,66.5,65.3,30.01,SW,216,0.0,1.0,96,0.00,,---,0.14,VWS V14.00,2013-12-05 21:36:00,
2013-12-05 16:41:00,66.5,65.3,30.01,SW,235,2.0,2.0,96,0.00,,---,0.14,VWS V14.00,2013-12-05 21:41:00,
2013-12-05 16:46:00,66.5,65.3,30.01,South,175,1.0,1.0,96,0.00,,---,0.14,VWS V14.00,2013-12-05 21:46:00,
2013-12-05 16:51:00,66.5,65.3,30.01,South,188,2.0,5.0,96,0.00,,---,0.14,VWS V14.00,2013-12-05 21:51:00,
2013-12-05 16:56:00,66.5,65.3,30.01,South,191,3.0,3.0,96,0.00,,---,0.14,VWS V14.00,2013-12-05 21:56:00,
2013-12-05 17:01:00,66.5,65.3,30.01,SSW,192,0.0,0.0,96,0.00,,---,0.14,VWS V14.00,2013-12-05 22:01:00,
2013-12-05 17:06:00,66.4,65.2,30.01,SSW,192,0.0,0.0,96,0.00,,---,0.14,VWS V14.00,2013-12-05 22:06:00,
2013-12-05 17:11:00,66.3,65.1,30.01,SSE,165,1.0,2.0,96,0.00,,---,0.14,VWS V14.00,2013-12-05 22:11:00,
2013-12-05 17:16:00,66.3,65.1,30.01,SSE,165,0.0,0.0,96,0.00,,---,0.14,VWS V14.00,2013-12-05 22:16:00,
2013-12-05 17:21:00,66.2,65.0,30.01,South,180,3.0,3.0,96,0.00,,---,0.14,VWS V14.00,2013-12-05 22:21:00,
2013-12-05 17:26:00,66.2,65.0,30.01,SW,224,0.0,4.0,96,0.00,,---,0.14,VWS V14.00,2013-12-05 22:26:00,
2013-12-05 17:31:00,66.2,65.0,30.02,SSW,196,0.0,7.0,96,0.00,,---,0.14,VWS V14.00,2013-12-05 22:31:00,
2013-12-05 17:36:00,66.2,65.0,30.02,SSW,196,0.0,0.0,96,0.00,,---,0.14,VWS V14.00,2013-12-05 22:36:00,
2013-12-05 17:41:00,66.2,65.0,30.02,South,178,0.0,4.0,96,0.00,,---,0.14,VWS V14.00,2013-12-05 22:41:00,
2013-12-05 17:46:00,66.1,64.9,30.02,SSW,207,0.0,1.0,96,0.00,,---,0.14,VWS V14.00,2013-12-05 22:46:00,
2013-12-05 17:51:00,66.1,64.9,30.02,SSW,208,0.0,4.0,96,0.00,,---,0.14,VWS V14.00,2013-12-05 22:51:00,
2013-12-05 17:56:00,66.1,64.9,30.02,SW,224,0.0,4.0,96,0.00,,---,0.14,VWS V14.00,2013-12-05 22:56:00,
2013-12-05 18:01:00,66.0,64.8,30.02,South,173,1.0,6.0,96,0.00,,---,0.14,VWS V14.00,2013-12-05 23:01:00,
2013-12-05 18:06:00,66.0,64.8,30.02,SW,215,1.0,5.0,96,0.00,,---,0.14,VWS V14.00,2013-12-05 23:06:00,
2013-12-05 18:11:00,66.0,65.1,30.02,SSE,164,0.0,5.0,97,0.00,,---,0.14,VWS V14.00,2013-12-05 23:11:00,
2013-12-05 18:16:00,66.0,65.1,30.02,SSW,192,1.0,6.0,97,0.00,,---,0.14,VWS V14.00,2013-12-05 23:16:00,
2013-12-05 18:21:00,66.0,65.1,30.02,SSE,167,2.0,5.0,97,0.00,,---,0.14,VWS V14.00,2013-12-05 23:21:00,
2013-12-05 18:26:00,66.0,65.1,30.02,South,191,0.0,2.0,97,0.00,,---,0.14,VWS V14.00,2013-12-05 23:26:00,
2013-12-05 18:31:00,66.0,65.1,30.02,SSW,209,0.0,1.0,97,0.00,,---,0.14,VWS V14.00,2013-12-05 23:31:00,
2013-12-05 18:36:00,66.0,65.1,30.02,SSW,213,0.0,5.0,97,0.00,,---,0.14,VWS V14.00,2013-12-05 23:36:00,
2013-12-05 18:41:00,66.0,65.1,30.02,SSW,200,0.0,2.0,97,0.00,,---,0.14,VWS V14.00,2013-12-05 23:41:00,
2013-12-05 18:46:00,66.0,65.1,30.02,SW,216,3.0,5.0,97,0.00,,---,0.14,VWS V14.00,2013-12-05 23:46:00,
2013-12-05 18:51:00,66.0,65.1,30.02,WSW,245,0.0,0.0,97,0.00,,---,0.14,VWS V14.00,2013-12-05 23:51:00,
2013-12-05 18:56:00,66.0,65.1,30.03,SSW,198,0.0,0.0,97,0.00,,---,0.14,VWS V14.00,2013-12-05 23:56:00,
2013-12-05 19:01:00,66.1,65.2,30.03,SSW,213,2.0,7.0,97,0.00,,---,0.14,VWS V14.00,2013-12-06 00:01:00,
2013-12-05 19:06:00,66.0,65.1,30.02,South,175,0.0,7.0,97,0.00,,---,0.14,VWS V14.00,2013-12-06 00:06:00,
2013-12-05 19:11:00,66.1,65.2,30.02,SSE,158,0.0,4.0,97,0.00,,---,0.14,VWS V14.00,2013-12-06 00:11:00,
2013-12-05 19:16:00,66.1,65.2,30.01,SSE,157,6.0,9.0,97,0.01,,---,0.15,VWS V14.00,2013-12-06 00:16:00,
2013-12-05 19:21:00,66.1,65.2,30.01,SSW,202,0.0,0.0,97,0.03,,---,0.17,VWS V14.00,2013-12-06 00:21:00,
2013-12-05 19:26:00,66.0,65.1,30.01,SSW,195,4.0,6.0,97,0.04,,---,0.18,VWS V14.00,2013-12-06 00:26:00,
2013-12-05 19:31:00,66.0,65.1,30.01,SSW,209,6.0,8.0,97,0.05,,---,0.19,VWS V14.00,2013-12-06 00:31:00,
2013-12-05 19:36:00,66.0,65.4,30.01,South,173,4.0,8.0,98,0.05,,---,0.19,VWS V14.00,2013-12-06 00:36:00,
2013-12-05 19:41:00,66.0,65.4,30.01,SSW,192,5.0,6.0,98,0.06,,---,0.20,VWS V14.00,2013-12-06 00:41:00,
2013-12-05 19:46:00,66.0,65.4,30.01,South,172,6.0,8.0,98,0.06,,---,0.20,VWS V14.00,2013-12-06 00:46:00,
2013-12-05 19:51:00,66.0,65.4,30.01,SSW,206,3.0,7.0,98,0.06,,---,0.20,VWS V14.00,2013-12-06 00:51:00,
2013-12-05 19:56:00,66.0,65.4,30.01,South,185,7.0,12.0,98,0.06,,---,0.20,VWS V14.00,2013-12-06 00:56:00,
2013-12-05 20:01:00,66.1,65.5,30.01,SSE,168,7.0,9.0,98,0.06,,---,0.20,VWS V14.00,2013-12-06 01:01:00,
2013-12-05 20:06:00,66.1,65.5,30.01,SSE,158,4.0,6.0,98,0.06,,---,0.20,VWS V14.00,2013-12-06 01:06:00,
2013-12-05 20:11:00,66.1,65.5,30.01,SSW,197,0.0,8.0,98,0.06,,---,0.20,VWS V14.00,2013-12-06 01:11:00,
2013-12-05 20:16:00,66.1,65.5,30.01,SSE,164,4.0,7.0,98,0.05,,---,0.20,VWS V14.00,2013-12-06 01:16:00,
2013-12-05 20:21:00,66.1,65.5,30.01,SSW,199,0.0,8.0,98,0.04,,---,0.20,VWS V14.00,2013-12-06 01:21:00,
2013-12-05 20:26:00,66.1,65.5,30.00,SSE,157,6.0,7.0,98,0.03,,---,0.20,VWS V14.00,2013-12-06 01:26:00,
2013-12-05 20:31:00,66.1,65.5,30.00,SW,219,5.0,8.0,98,0.02,,---,0.20,VWS V14.00,2013-12-06 01:31:00,
2013-12-05 20:36:00,66.2,65.6,30.00,South,171,6.0,6.0,98,0.01,,---,0.20,VWS V14.00,2013-12-06 01:36:00,
2013-12-05 20:41:00,66.2,65.6,30.00,SE,130,5.0,8.0,98,0.00,,---,0.20,VWS V14.00,2013-12-06 01:41:00,
2013-12-05 20:46:00,66.3,65.7,30.00,South,178,1.0,10.0,98,0.00,,---,0.20,VWS V14.00,2013-12-06 01:46:00,
2013-12-05 20:51:00,66.3,65.7,30.00,South,172,9.0,11.0,98,0.00,,---,0.20,VWS V14.00,2013-12-06 01:51:00,
2013-12-05 20:56:00,66.4,65.8,30.00,WSW,238,6.0,6.0,98,0.00,,---,0.20,VWS V14.00,2013-12-06 01:56:00,
2013-12-05 21:01:00,66.5,65.9,29.99,SE,141,7.0,8.0,98,0.00,,---,0.20,VWS V14.00,2013-12-06 02:01:00,
2013-12-05 21:06:00,66.5,65.9,30.00,SSW,194,7.0,15.0,98,0.00,,---,0.20,VWS V14.00,2013-12-06 02:06:00,
2013-12-05 21:11:00,66.6,66.0,30.00,SW,224,7.0,10.0,98,0.00,,---,0.20,VWS V14.00,2013-12-06 02:11:00,
2013-12-05 21:16:00,66.7,66.1,30.00,South,177,6.0,9.0,98,0.00,,---,0.20,VWS V14.00,2013-12-06 02:16:00,
2013-12-05 21:21:00,66.8,66.2,30.00,SW,236,7.0,11.0,98,0.00,,---,0.20,VWS V14.00,2013-12-06 02:21:00,
2013-12-05 21:26:00,66.8,66.2,30.00,SW,220,10.0,14.0,98,0.00,,---,0.20,VWS V14.00,2013-12-06 02:26:00,
2013-12-05 21:31:00,66.9,66.3,30.00,SW,225,4.0,7.0,98,0.00,,---,0.20,VWS V14.00,2013-12-06 02:31:00,
2013-12-05 21:36:00,67.0,66.4,30.00,SSW,213,6.0,11.0,98,0.00,,---,0.20,VWS V14.00,2013-12-06 02:36:00,
2013-12-05 21:41:00,67.1,66.5,30.00,SW,215,3.0,5.0,98,0.00,,---,0.20,VWS V14.00,2013-12-06 02:41:00,
2013-12-05 21:46:00,67.2,66.6,30.00,SSW,213,5.0,8.0,98,0.00,,---,0.20,VWS V14.00,2013-12-06 02:46:00,
2013-12-05 21:51:00,67.2,66.6,29.99,SW,215,11.0,14.0,98,0.00,,---,0.20,VWS V14.00,2013-12-06 02:51:00,
2013-12-05 21:56:00,67.3,66.7,29.99,West,271,5.0,8.0,98,0.00,,---,0.20,VWS V14.00,2013-12-06 02:56:00,
2013-12-05 22:01:00,67.4,66.8,30.00,South,183,7.0,12.0,98,0.00,,---,0.20,VWS V14.00,2013-12-06 03:01:00,
2013-12-05 22:06:00,67.5,66.9,30.00,WSW,237,5.0,15.0,98,0.00,,---,0.20,VWS V14.00,2013-12-06 03:06:00,
2013-12-05 22:11:00,67.5,66.9,30.00,WSW,238,9.0,9.0,98,0.00,,---,0.20,VWS V14.00,2013-12-06 03:11:00,
2013-12-05 22:16:00,67.5,66.9,30.00,SW,221,7.0,9.0,98,0.00,,---,0.20,VWS V14.00,2013-12-06 03:16:00,
2013-12-05 22:21:00,67.6,67.0,30.01,SSW,205,7.0,8.0,98,0.00,,---,0.20,VWS V14.00,2013-12-06 03:21:00,
2013-12-05 22:26:00,67.6,67.0,30.01,SW,230,8.0,9.0,98,0.00,,---,0.20,VWS V14.00,2013-12-06 03:26:00,
2013-12-05 22:31:00,67.6,67.0,30.01,WSW,238,0.0,9.0,98,0.00,,---,0.20,VWS V14.00,2013-12-06 03:31:00,
2013-12-05 22:36:00,67.7,67.1,30.00,SSE,164,8.0,10.0,98,0.00,,---,0.20,VWS V14.00,2013-12-06 03:36:00,
2013-12-05 22:41:00,67.7,67.1,30.00,SSW,211,3.0,7.0,98,0.00,,---,0.20,VWS V14.00,2013-12-06 03:41:00,
2013-12-05 22:46:00,67.7,66.8,30.00,SW,214,3.0,6.0,97,0.00,,---,0.20,VWS V14.00,2013-12-06 03:46:00,
2013-12-05 22:51:00,67.7,66.8,30.00,SW,231,3.0,4.0,97,0.00,,---,0.20,VWS V14.00,2013-12-06 03:51:00,
2013-12-05 22:56:00,67.7,66.8,30.00,SW,222,9.0,10.0,97,0.00,,---,0.20,VWS V14.00,2013-12-06 03:56:00,
2013-12-05 23:01:00,67.7,66.8,30.01,SW,229,2.0,10.0,97,0.00,,---,0.20,VWS V14.00,2013-12-06 04:01:00,
2013-12-05 23:06:00,67.7,66.8,30.01,SW,236,6.0,8.0,97,0.01,,---,0.21,VWS V14.00,2013-12-06 04:06:00,
2013-12-05 23:11:00,67.7,66.8,30.01,SW,235,0.0,0.0,97,0.02,,---,0.22,VWS V14.00,2013-12-06 04:11:00,
2013-12-05 23:16:00,67.7,66.8,30.00,SW,217,9.0,9.0,97,0.02,,---,0.22,VWS V14.00,2013-12-06 04:16:00,
2013-12-05 23:21:00,67.7,66.8,30.01,SW,236,7.0,10.0,97,0.02,,---,0.22,VWS V14.00,2013-12-06 04:21:00,
2013-12-05 23:26:00,67.7,66.8,30.01,SW,219,1.0,10.0,97,0.02,,---,0.22,VWS V14.00,2013-12-06 04:26:00,
2013-12-05 23:31:00,67.7,66.8,30.00,SSW,192,3.0,8.0,97,0.02,,---,0.22,VWS V14.00,2013-12-06 04:31:00,
2013-12-05 23:36:00,67.7,66.8,30.01,WSW,237,6.0,10.0,97,0.02,,---,0.22,VWS V14.00,2013-12-06 04:36:00,
2013-12-05 23:41:00,67.7,66.8,30.01,SW,236,11.0,12.0,97,0.02,,---,0.22,VWS V14.00,2013-12-06 04:41:00,
2013-12-05 23:46:00,67.7,66.8,30.00,SW,235,11.0,12.0,97,0.02,,---,0.22,VWS V14.00,2013-12-06 04:46:00,
2013-12-05 23:51:00,67.7,66.8,30.00,SW,226,2.0,12.0,97,0.02,,---,0.22,VWS V14.00,2013-12-06 04:51:00,
2013-12-05 23:56:00,67.7,66.8,30.00,WSW,240,7.0,12.0,97,0.02,,---,0.22,VWS V14.00,2013-12-06 04:56:00,